Location: Keppel Henge
(44.7900°N, 80.9447°W)
Time: 00:22:07
(UTC-04:00)

Vanguard 2 Rocket - All Passes

Search period start: 23 July 2018 00:00
Search period end: 02 August 2018 00:00
Orbit: 554 x 3327 km, 32.9° (Epoch: 22 July)

Date Brightness Start Highest point End Pass type
(mag) Time Alt. Az. Time Alt. Az. Time Alt. Az.
23 Jul - 03:21:38 10° SSW 03:26:03 25° SSE 03:32:30 10° ESE visible
23 Jul - 05:32:21 10° WSW 05:38:43 37° S 05:49:17 10° ESE daylight
23 Jul - 07:44:42 10° WSW 07:52:45 30° SSW 08:04:59 10° SE daylight
23 Jul - 10:01:07 10° WSW 10:07:34 15° SSW 10:15:18 10° S daylight
24 Jul - 02:23:57 10° SSW 02:27:07 17° SSE 02:31:06 10° ESE visible
24 Jul - 04:33:49 10° SW 04:39:12 34° S 04:47:49 10° ESE visible
24 Jul - 06:45:33 10° WSW 06:52:38 32° S 07:03:51 10° SE daylight
24 Jul - 08:59:54 10° WSW 09:07:06 19° SSW 09:16:33 10° S daylight
25 Jul - 03:35:29 10° SW 03:39:57 28° SSE 03:46:36 10° ESE visible
25 Jul - 05:46:42 10° WSW 05:52:49 32° S 06:02:36 10° SE daylight
25 Jul - 07:59:50 10° WSW 08:06:50 22° SSW 08:16:41 10° SSE daylight
26 Jul - 02:37:24 10° SSW 02:40:56 21° SSE 02:45:35 10° ESE visible
26 Jul - 04:48:03 10° WSW 04:53:16 31° S 05:01:25 10° ESE visible
26 Jul - 07:00:22 10° WSW 07:06:46 24° SSW 07:16:13 10° SSE daylight
26 Jul - 09:18:28 10° SW 09:21:09 11° SSW 09:24:04 10° SSW daylight
27 Jul - 01:39:48 10° S 01:42:02 14° SSE 01:44:34 10° SE visible
27 Jul - 03:49:35 10° SW 03:53:59 28° S 04:00:27 10° ESE visible
27 Jul - 06:01:18 10° WSW 06:06:58 26° S 06:15:29 10° SE daylight
27 Jul - 08:16:10 10° SW 08:20:56 14° SSW 08:26:48 10° S daylight
28 Jul - 02:51:15 10° SW 02:54:53 23° SSE 02:59:45 10° ESE visible
28 Jul - 05:02:31 10° WSW 05:07:24 26° S 05:14:43 10° SE visible
28 Jul - 07:15:54 10° SW 07:20:56 17° SSW 07:27:33 10° SSE daylight
29 Jul - 01:53:07 10° SSW 01:55:55 17° SSE 01:59:14 10° ESE visible
29 Jul - 04:03:53 10° SW 04:08:04 25° S 04:14:04 10° SE visible
29 Jul - 06:16:23 10° WSW 06:21:08 19° SSW 06:27:39 10° SSE daylight
30 Jul - 00:55:27 10° S 00:57:00 12° SSE 00:58:38 10° SE night (unlit)
30 Jul - 03:05:23 10° SW 03:08:55 22° S 03:13:39 10° SE visible
30 Jul - 05:17:18 10° SW 05:21:34 20° S 05:27:29 10° SSE visible
31 Jul - 02:06:57 10° SW 02:09:55 19° S 02:13:28 10° SE visible
31 Jul - 04:18:28 10° SW 04:22:14 20° S 04:27:18 10° SE visible
31 Jul - 06:33:03 10° SW 06:35:21 11° SSW 06:37:58 10° S daylight
01 Aug - 01:08:37 10° SSW 01:10:57 15° SSE 01:13:29 10° SE night (unlit)
01 Aug - 03:19:46 10° SW 03:23:02 20° S 03:27:14 10° SE visible
01 Aug - 05:33:00 10° SW 05:35:47 13° SSW 05:39:07 10° S visible
